,,Stat6,,Stat2,,Stat8,,Stat9,,Stat10,,Wind1,,Wind1,
time,status,PA1M_AVG,status,PR1M_SUM,status,RH1M_AVG,status,SR1M_AVG,status,TA1M_AVG,status,W1dAve1m,status,W1sAve1m,
2003-10-23, 00:00:00,VALID,921.075,VALID,0,VALID,100,VALID,0.0339617,VALID,20.1737,VALID,112,VALID,0.436756,
2003-10-23, 00:01:00,VALID,921.077,VALID,0,VALID,100,VALID,0.0339617,VALID,20.1509,VALID,120,VALID,0.470567,
2003-10-23, 00:02:01,VALID,921.082,VALID,0,VALID,100,VALID,0.0509425,VALID,20.1548,VALID,124,VALID,0.371354,
2003-10-23, 00:03:00,VALID,921.101,VALID,0,VALID,100,VALID,0.0339617,VALID,20.1446,VALID,132,VALID,0.558499,
2003-10-23, 00:04:00,VALID,921.111,VALID,0,VALID,100,VALID,0.0339617,VALID,20.1153,VALID,139,VALID,0.417773,
2003-10-23, 00:05:00,VALID,921.123,VALID,0,VALID,100,VALID,-0.0339617,VALID,20.1236,VALID,129,VALID,0.622692,
2003-10-23, 00:06:01,VALID,921.13,VALID,0,VALID,100,VALID,-0.0339617,VALID,20.0875,VALID,124,VALID,0.539444,
2003-10-23, 00:07:01,VALID,921.142,VALID,0,VALID,100,VALID,-0.0849042,VALID,20.0428,VALID,123,VALID,0.0565044,
2003-10-23, 00:08:00,VALID,921.145,VALID,0,VALID,100,VALID,-0.0339617,VALID,19.9752,VALID,121,VALID,0.14375,
2003-10-23, 00:09:00,VALID,921.137,VALID,0,VALID,99.9875,VALID,-0.0509425,VALID,19.8975,VALID,47,VALID,0.404154,
2003-10-23, 00:10:01,VALID,921.125,VALID,0,VALID,99.998,VALID,-0.0849042,VALID,19.8878,VALID,44,VALID,0.346475,
2003-10-23, 00:11:00,VALID,921.13,VALID,0,VALID,100,VALID,-0.0679233,VALID,19.8781,VALID,56,VALID,0.355015,
2003-10-23, 00:12:01,VALID,921.107,VALID,0,VALID,100,VALID,-0.0849042,VALID,19.9074,VALID,93,VALID,0.450763,
2003-10-23, 00:13:00,VALID,921.083,VALID,0,VALID,100,VALID,-0.0339617,VALID,19.9588,VALID,99,VALID,0.631925,
2003-10-23, 00:14:01,VALID,921.058,VALID,0,VALID,100,VALID,-0.0679233,VALID,20.013,VALID,115,VALID,0.692708,
2003-10-23, 00:15:00,VALID,921.04,VALID,0,VALID,100,VALID,-0.0679233,VALID,20.0692,VALID,115,VALID,0.636083,
2003-10-23, 00:16:01,VALID,921.014,VALID,0,VALID,100,VALID,-0.0849042,VALID,20.0652,VALID,120,VALID,0.623512,
2003-10-23, 00:17:00,VALID,921,VALID,0,VALID,100,VALID,-0.0679233,VALID,20.0786,VALID,120,VALID,0.637251,
2003-10-23, 00:18:01,VALID,920.989,VALID,0,VALID,100,VALID,-0.0849042,VALID,20.0592,VALID,122,VALID,0.552827,
2003-10-23, 00:19:00,VALID,920.983,VALID,0,VALID,100,VALID,-0.0339617,VALID,20.0587,VALID,132,VALID,0.793924,
2003-10-23, 00:20:01,VALID,920.968,VALID,0,VALID,100,VALID,-0.0169808,VALID,20.0652,VALID,136,VALID,0.450457,
2003-10-23, 00:21:01,VALID,920.966,VALID,0,VALID,100,VALID,-0.0509425,VALID,20.0654,VALID,127,VALID,0.838118,
2003-10-23, 00:22:00,VALID,920.968,VALID,0,VALID,100,VALID,-0.0169808,VALID,20.059,VALID,126,VALID,0.772656,
2003-10-23, 00:23:01,VALID,920.971,VALID,0,VALID,100,VALID,-0.0509425,VALID,20.0562,VALID,134,VALID,0.564503,
2003-10-23, 00:24:01,VALID,920.955,VALID,0,VALID,100,VALID,-0.0509425,VALID,20.0622,VALID,121,VALID,0.751635,
2003-10-23, 00:25:00,VALID,920.962,VALID,0,VALID,100,VALID,-0.0339617,VALID,20.052,VALID,121,VALID,0.269436,
2003-10-23, 00:26:01,VALID,920.959,VALID,0,VALID,100,VALID,-0.101885,VALID,20.049,VALID,121,VALID,0.33718,
2003-10-23, 00:27:00,VALID,920.951,VALID,0,VALID,100,VALID,-0.0679233,VALID,20.0557,VALID,121,VALID,0.141319,
2003-10-23, 00:28:01,VALID,920.943,VALID,0,VALID,100,VALID,-0.0339617,VALID,20.0689,VALID,121,VALID,0.0275298,
2003-10-23, 00:29:01,VALID,920.944,VALID,0,VALID,100,VALID,-0.0849042,VALID,20.0788,VALID,121,VALID,0.0675223,
2003-10-23, 00:30:00,VALID,920.938,VALID,0,VALID,100,VALID,-0.0509425,VALID,20.0756,VALID,121,VALID,0,
2003-10-23, 00:31:01,VALID,920.931,VALID,0,VALID,100,VALID,-0.0679233,VALID,20.0818,VALID,121,VALID,0,
2003-10-23, 00:32:01,VALID,920.925,VALID,0,VALID,100,VALID,-0.101885,VALID,20.0885,VALID,121,VALID,0,
2003-10-23, 00:33:01,VALID,920.934,VALID,0,VALID,100,VALID,-0.0849042,VALID,20.0952,VALID,121,VALID,0.177326,
2003-10-23, 00:34:00,VALID,920.936,VALID,0,VALID,100,VALID,-0.0509425,VALID,20.0851,VALID,122,VALID,0.200945,
2003-10-23, 00:35:00,VALID,920.935,VALID,0,VALID,100,VALID,-0.0339617,VALID,20.0851,VALID,122,VALID,0.0284598,
2003-10-23, 00:36:01,VALID,920.919,VALID,0,VALID,100,VALID,0,VALID,20.091,VALID,122,VALID,0,
2003-10-23, 00:37:01,VALID,920.902,VALID,0,VALID,100,VALID,-0.0169808,VALID,20.0977,VALID,122,VALID,0.0184659,
2003-10-23, 00:38:01,VALID,920.87,VALID,0,VALID,100,VALID,-0.0169808,VALID,20.1004,VALID,123,VALID,0.0642149,
2003-10-23, 00:39:01,VALID,920.857,VALID,0,VALID,100,VALID,0,VALID,20.1034,VALID,134,VALID,0.196403,
2003-10-23, 00:40:01,VALID,920.833,VALID,0,VALID,100,VALID,0,VALID,20.1231,VALID,176,VALID,0.15298,
2003-10-23, 00:41:01,VALID,920.802,VALID,0,VALID,100,VALID,0,VALID,20.1198,VALID,183,VALID,0.158913,
2003-10-23, 00:42:01,VALID,920.787,VALID,0,VALID,100,VALID,0,VALID,20.1424,VALID,183,VALID,0,
2003-10-23, 00:43:01,VALID,920.774,VALID,0,VALID,100,VALID,0,VALID,20.1626,VALID,183,VALID,0.00093006,
2003-10-23, 00:44:01,VALID,920.748,VALID,0,VALID,100,VALID,-0.0169808,VALID,20.1556,VALID,183,VALID,0.0418074,
2003-10-23, 00:45:01,VALID,920.738,VALID,0,VALID,100,VALID,0,VALID,20.1427,VALID,183,VALID,0,
2003-10-23, 00:46:01,VALID,920.727,VALID,0,VALID,100,VALID,0,VALID,20.1427,VALID,183,VALID,0,
2003-10-23, 00:47:01,VALID,920.71,VALID,0,VALID,100,VALID,-0.0339617,VALID,20.1457,VALID,183,VALID,0.00744913,
2003-10-23, 00:48:01,VALID,920.667,VALID,0,VALID,100,VALID,-0.0509425,VALID,20.1658,VALID,183,VALID,0.0729721,
2003-10-23, 00:49:01,VALID,920.653,VALID,0,VALID,100,VALID,0,VALID,20.1586,VALID,183,VALID,0.00763081,
2003-10-23, 00:50:01,VALID,920.623,VALID,0,VALID,100,VALID,-0.0169808,VALID,20.1588,VALID,183,VALID,0.0690104,
2003-10-23, 00:51:01,VALID,920.599,VALID,0,VALID,100,VALID,-0.0339617,VALID,20.1559,VALID,183,VALID,0.212126,
2003-10-23, 00:52:01,VALID,920.586,VALID,0,VALID,100,VALID,-0.0509425,VALID,20.1464,VALID,183,VALID,0.200586,
2003-10-23, 00:53:01,VALID,920.57,VALID,0,VALID,100,VALID,0,VALID,20.1362,VALID,183,VALID,0.182227,
2003-10-23, 00:54:01,VALID,920.565,VALID,0,VALID,100,VALID,-0.0169808,VALID,20.1397,VALID,183,VALID,0.141768,
2003-10-23, 00:55:01,VALID,920.56,VALID,0,VALID,100,VALID,-0.0339617,VALID,20.1432,VALID,183,VALID,0.00130208,
2003-10-23, 00:56:01,VALID,920.536,VALID,0,VALID,100,VALID,0,VALID,20.1429,VALID,183,VALID,0.0355114,
2003-10-23, 00:57:01,VALID,920.527,VALID,0,VALID,100,VALID,-0.0169808,VALID,20.1661,VALID,183,VALID,0,
2003-10-23, 00:58:01,VALID,920.517,VALID,0,VALID,100,VALID,-0.0339617,VALID,20.1785,VALID,183,VALID,0,
2003-10-23, 00:59:01,VALID,920.505,VALID,0,VALID,100,VALID,-0.0169808,VALID,20.1817,VALID,183,VALID,0,
2003-10-23, 01:00:01,VALID,920.493,VALID,0,VALID,100,VALID,-0.0169808,VALID,20.1949,VALID,183,VALID,0,
2003-10-23, 01:01:01,VALID,920.492,VALID,0,VALID,100,VALID,0,VALID,20.1949,VALID,183,VALID,0,
2003-10-23, 01:02:01,VALID,920.501,VALID,0,VALID,100,VALID,0,VALID,20.2006,VALID,183,VALID,0,
2003-10-23, 01:03:01,VALID,920.494,VALID,0,VALID,100,VALID,0,VALID,20.1911,VALID,183,VALID,0,
2003-10-23, 01:04:01,VALID,920.484,VALID,0,VALID,100,VALID,0,VALID,20.2108,VALID,183,VALID,0,
2003-10-23, 01:05:01,VALID,920.483,VALID,0,VALID,100,VALID,0,VALID,20.2237,VALID,183,VALID,0,
2003-10-23, 01:06:01,VALID,920.479,VALID,0,VALID,100,VALID,-0.0169808,VALID,20.214,VALID,183,VALID,0.17663,
2003-10-23, 01:07:01,VALID,920.463,VALID,0,VALID,100,VALID,-0.0169808,VALID,20.2172,VALID,192,VALID,0.253452,
2003-10-23, 01:08:00,VALID,920.451,VALID,0,VALID,100,VALID,-0.0169808,VALID,20.1916,VALID,223,VALID,0.49564,
2003-10-23, 01:09:00,VALID,920.419,VALID,0,VALID,100,VALID,-0.0169808,VALID,20.1556,VALID,223,VALID,0.155342,
2003-10-23, 01:10:00,VALID,920.404,VALID,0,VALID,100,VALID,0,VALID,20.1559,VALID,223,VALID,0.178993,
2003-10-23, 01:11:00,VALID,920.384,VALID,0,VALID,100,VALID,-0.0169808,VALID,20.169,VALID,223,VALID,0.00186012,
2003-10-23, 01:12:00,VALID,920.379,VALID,0,VALID,100,VALID,0,VALID,20.175,VALID,223,VALID,0,
2003-10-23, 01:13:00,VALID,920.369,VALID,0,VALID,100,VALID,0,VALID,20.178,VALID,223,VALID,0,
2003-10-23, 01:14:00,VALID,920.374,VALID,0,VALID,100,VALID,0.0169808,VALID,20.1916,VALID,223,VALID,0,
2003-10-23, 01:15:00,VALID,920.386,VALID,0,VALID,100,VALID,0,VALID,20.1909,VALID,223,VALID,0,
2003-10-23, 01:16:00,VALID,920.396,VALID,0,VALID,100,VALID,-0.0169808,VALID,20.2105,VALID,223,VALID,0.0380208,
2003-10-23, 01:17:00,VALID,920.385,VALID,0,VALID,100,VALID,0,VALID,20.1944,VALID,223,VALID,0.0662202,
2003-10-23, 01:18:00,VALID,920.382,VALID,0,VALID,100,VALID,-0.0169808,VALID,20.1814,VALID,223,VALID,0,
2003-10-23, 01:19:00,VALID,920.371,VALID,0,VALID,100,VALID,0.0169808,VALID,20.178,VALID,223,VALID,0,
2003-10-23, 01:20:00,VALID,920.356,VALID,0,VALID,100,VALID,-0.0169808,VALID,20.1944,VALID,223,VALID,0,
2003-10-23, 01:21:00,VALID,920.339,VALID,0,VALID,100,VALID,0,VALID,20.207,VALID,223,VALID,0,
2003-10-23, 01:22:00,VALID,920.324,VALID,0,VALID,100,VALID,0,VALID,20.2199,VALID,223,VALID,0.109933,
2003-10-23, 01:23:00,VALID,920.307,VALID,0,VALID,100,VALID,-0.0169808,VALID,20.2393,VALID,223,VALID,0.0672238,
2003-10-23, 01:24:00,VALID,920.31,VALID,0,VALID,100,VALID,0,VALID,20.2488,VALID,223,VALID,0.283668,
2003-10-23, 01:25:00,VALID,920.313,VALID,0,VALID,100,VALID,0,VALID,20.2431,VALID,223,VALID,0.386009,
2003-10-23, 01:26:00,VALID,920.318,VALID,0,VALID,100,VALID,0,VALID,20.207,VALID,186,VALID,0.393102,
2003-10-23, 01:27:00,VALID,920.329,VALID,0,VALID,100,VALID,-0.0169808,VALID,20.2103,VALID,36,VALID,0.513207,
2003-10-23, 01:28:00,VALID,920.334,VALID,0,VALID,100,VALID,0.0169808,VALID,20.2103,VALID,24,VALID,0.456745,
2003-10-23, 01:29:00,VALID,920.346,VALID,0,VALID,100,VALID,0.0169808,VALID,20.2229,VALID,22,VALID,0.447129,
2003-10-23, 01:30:00,VALID,920.354,VALID,0,VALID,100,VALID,0,VALID,20.2331,VALID,21,VALID,0.347098,
2003-10-23, 01:31:00,VALID,920.36,VALID,0,VALID,100,VALID,0,VALID,20.2035,VALID,16,VALID,0.328711,
2003-10-23, 01:32:00,VALID,920.341,VALID,0,VALID,100,VALID,-0.0169808,VALID,20.1876,VALID,15,VALID,0.348028,
2003-10-23, 01:33:00,VALID,920.341,VALID,0,VALID,100,VALID,-0.0169808,VALID,20.1752,VALID,15,VALID,0.20827,
2003-10-23, 01:34:00,VALID,920.325,VALID,0,VALID,100,VALID,-0.0339617,VALID,20.1688,VALID,15,VALID,0.00111607,
2003-10-23, 01:35:00,VALID,920.311,VALID,0,VALID,100,VALID,-0.0339617,VALID,20.1564,VALID,15,VALID,0.105664,
2003-10-23, 01:36:00,VALID,920.294,VALID,0,VALID,100,VALID,-0.0679233,VALID,20.1661,VALID,15,VALID,0.172619,
2003-10-23, 01:37:00,VALID,920.304,VALID,0,VALID,100,VALID,-0.101885,VALID,20.1949,VALID,15,VALID,0.318824,
2003-10-23, 01:38:00,VALID,920.287,VALID,0,VALID,100,VALID,-0.101885,VALID,20.1849,VALID,15,VALID,0.495703,
2003-10-23, 01:39:00,VALID,920.286,VALID,0,VALID,100,VALID,-0.0849042,VALID,20.2016,VALID,17,VALID,0.666109,
2003-10-23, 01:40:00,VALID,920.282,VALID,0,VALID,100,VALID,-0.0509425,VALID,20.221,VALID,9,VALID,0.738867,
2003-10-23, 01:41:00,VALID,920.275,VALID,0,VALID,100,VALID,-0.0509425,VALID,20.1919,VALID,3,VALID,0.656432,
2003-10-23, 01:42:00,VALID,920.284,VALID,0,VALID,100,VALID,-0.0849042,VALID,20.179,VALID,360,VALID,0.573864,
2003-10-23, 01:43:00,VALID,920.271,VALID,0,VALID,100,VALID,-0.0679233,VALID,20.1564,VALID,3,VALID,0.602805,
2003-10-23, 01:44:00,VALID,920.265,VALID,0,VALID,100,VALID,-0.0509425,VALID,20.1402,VALID,4,VALID,0.603819,
2003-10-23, 01:45:00,VALID,920.265,VALID,0,VALID,100,VALID,-0.0849042,VALID,20.14,VALID,23,VALID,0.574505,
2003-10-23, 01:46:00,VALID,920.27,VALID,0,VALID,100,VALID,-0.0679233,VALID,20.1564,VALID,28,VALID,0.503906,
2003-10-23, 01:47:00,VALID,920.259,VALID,0,VALID,100,VALID,-0.0509425,VALID,20.1693,VALID,25,VALID,0.462271,
2003-10-23, 01:48:00,VALID,920.244,VALID,0,VALID,100,VALID,-0.0849042,VALID,20.179,VALID,25,VALID,0.668146,
2003-10-23, 01:49:00,VALID,920.233,VALID,0,VALID,100,VALID,-0.0169808,VALID,20.1755,VALID,23,VALID,0.611555,
2003-10-23, 01:50:00,VALID,920.227,VALID,0,VALID,100,VALID,0.0509425,VALID,20.1514,VALID,33,VALID,0.0218023,
2003-10-23, 01:51:00,VALID,920.193,VALID,0,VALID,100,VALID,0.0679233,VALID,20.132,VALID,32,VALID,0.0262277,
2003-10-23, 01:52:00,VALID,920.176,VALID,0,VALID,100,VALID,0.101885,VALID,20.1193,VALID,30,VALID,0.0341082,
2003-10-23, 01:53:00,VALID,920.166,VALID,0,VALID,100,VALID,0.0509425,VALID,20.0962,VALID,29,VALID,0,
2003-10-23, 01:54:00,VALID,920.167,VALID,0,VALID,100,VALID,0.0169808,VALID,20.0897,VALID,29,VALID,0,
2003-10-23, 01:55:00,VALID,920.178,VALID,0,VALID,100,VALID,0.0339617,VALID,20.09,VALID,29,VALID,0.0628397,
2003-10-23, 01:56:00,VALID,920.198,VALID,0,VALID,100,VALID,0.0509425,VALID,20.0957,VALID,25,VALID,0.535714,
2003-10-23, 01:57:00,VALID,920.205,VALID,0,VALID,100,VALID,0.0169808,VALID,20.1161,VALID,20,VALID,0.557231,
2003-10-23, 01:58:00,VALID,920.219,VALID,0,VALID,100,VALID,0.0339617,VALID,20.1287,VALID,17,VALID,0.187128,
2003-10-23, 01:59:00,VALID,920.227,VALID,0,VALID,100,VALID,0.0169808,VALID,20.1546,VALID,9,VALID,0.238021,
2003-10-23, 02:00:00,VALID,920.222,VALID,0,VALID,100,VALID,0.0169808,VALID,20.1384,VALID,2,VALID,0.303735,
2003-10-23, 02:01:00,VALID,920.209,VALID,0,VALID,100,VALID,0.0339617,VALID,20.1379,VALID,5,VALID,0.371094,
2003-10-23, 02:02:00,VALID,920.207,VALID,0,VALID,100,VALID,0.0339617,VALID,20.1414,VALID,5,VALID,0.216388,
2003-10-23, 02:03:00,VALID,920.203,VALID,0,VALID,100,VALID,0.0169808,VALID,20.1511,VALID,5,VALID,0.0928199,
2003-10-23, 02:04:00,VALID,920.187,VALID,0,VALID,100,VALID,0.0509425,VALID,20.1583,VALID,5,VALID,0,
2003-10-23, 02:05:00,VALID,920.166,VALID,0,VALID,100,VALID,-0.0849042,VALID,20.1529,VALID,3,VALID,0.0224609,
2003-10-23, 02:06:00,VALID,920.149,VALID,0,VALID,100,VALID,-0.0849042,VALID,20.1176,VALID,306,VALID,0.26181,
2003-10-23, 02:07:00,VALID,920.134,VALID,0,VALID,100,VALID,-0.101885,VALID,20.102,VALID,306,VALID,0.0363372,
2003-10-23, 02:08:00,VALID,920.147,VALID,0,VALID,100,VALID,-0.101885,VALID,20.0851,VALID,306,VALID,0,
2003-10-23, 02:09:00,VALID,920.112,VALID,0,VALID,100,VALID,-0.0679233,VALID,20.0853,VALID,306,VALID,0.137326,
2003-10-23, 02:10:00,VALID,920.113,VALID,0,VALID,100,VALID,-0.0849042,VALID,20.0756,VALID,306,VALID,0.0481468,
2003-10-23, 02:11:00,VALID,920.101,VALID,0,VALID,100,VALID,-0.0509425,VALID,20.0883,VALID,306,VALID,0.00260417,
2003-10-23, 02:12:00,VALID,920.109,VALID,0,VALID,100,VALID,-0.0849042,VALID,20.0888,VALID,306,VALID,0.177973,
2003-10-23, 02:13:00,VALID,920.106,VALID,0,VALID,100,VALID,-0.0509425,VALID,20.0952,VALID,306,VALID,0,
2003-10-23, 02:14:00,VALID,920.099,VALID,0,VALID,100,VALID,-0.101885,VALID,20.0982,VALID,306,VALID,0,
2003-10-23, 02:15:00,VALID,920.09,VALID,0,VALID,100,VALID,-0.0679233,VALID,20.127,VALID,306,VALID,0,
2003-10-23, 02:16:00,VALID,920.07,VALID,0,VALID,100,VALID,-0.0679233,VALID,20.1529,VALID,306,VALID,0,
2003-10-23, 02:17:00,VALID,920.041,VALID,0,VALID,100,VALID,-0.0509425,VALID,20.1564,VALID,306,VALID,0,
2003-10-23, 02:18:00,VALID,920.031,VALID,0,VALID,100,VALID,-0.0169808,VALID,20.1564,VALID,306,VALID,0,
2003-10-23, 02:19:00,VALID,920.033,VALID,0,VALID,100,VALID,-0.0679233,VALID,20.179,VALID,317,VALID,0.0866815,
2003-10-23, 02:20:00,VALID,920.019,VALID,0,VALID,100,VALID,-0.0849042,VALID,20.1882,VALID,352,VALID,0.270894,
2003-10-23, 02:21:00,VALID,920.008,VALID,0,VALID,100,VALID,-0.0679233,VALID,20.2142,VALID,352,VALID,0.113867,
2003-10-23, 02:22:00,VALID,919.999,VALID,0,VALID,100,VALID,-0.0509425,VALID,20.2406,VALID,352,VALID,0.164773,
2003-10-23, 02:23:00,VALID,920.001,VALID,0,VALID,100,VALID,-0.0849042,VALID,20.2471,VALID,352,VALID,0.220203,
2003-10-23, 02:24:00,VALID,919.995,VALID,0,VALID,100,VALID,-0.0339617,VALID,20.2363,VALID,352,VALID,0.244141,
2003-10-23, 02:25:00,VALID,919.984,VALID,0,VALID,100,VALID,-0.0509425,VALID,20.2533,VALID,352,VALID,0.260538,
2003-10-23, 02:26:00,VALID,919.985,VALID,0,VALID,100,VALID,-0.101885,VALID,20.2692,VALID,360,VALID,0.462426,
2003-10-23, 02:27:00,VALID,919.971,VALID,0,VALID,100,VALID,-0.101885,VALID,20.2463,VALID,1,VALID,0.468369,
2003-10-23, 02:28:00,VALID,919.963,VALID,0,VALID,100,VALID,-0.0849042,VALID,20.2436,VALID,2,VALID,0.610518,
2003-10-23, 02:29:00,VALID,919.963,VALID,0,VALID,100,VALID,-0.101885,VALID,20.2207,VALID,7,VALID,0.725446,
2003-10-23, 02:30:00,VALID,919.956,VALID,0,VALID,100,VALID,-0.0679233,VALID,20.2046,VALID,21,VALID,0.997275,
2003-10-23, 02:31:00,VALID,919.945,VALID,0,VALID,100,VALID,-0.0679233,VALID,20.169,VALID,22,VALID,0.965216,
2003-10-23, 02:32:00,VALID,919.953,VALID,0,VALID,100,VALID,-0.0679233,VALID,20.1596,VALID,20,VALID,0.561756,
2003-10-23, 02:33:00,VALID,919.936,VALID,0,VALID,100,VALID,-0.0509425,VALID,20.1273,VALID,15,VALID,0.553052,
2003-10-23, 02:34:00,VALID,919.932,VALID,0,VALID,100,VALID,-0.0169808,VALID,20.0778,VALID,13,VALID,0.463034,
2003-10-23, 02:35:00,VALID,919.919,VALID,0,VALID,100,VALID,-0.0169808,VALID,20.0843,VALID,12,VALID,0.56359,
2003-10-23, 02:36:00,VALID,919.903,VALID,0,VALID,100,VALID,0.0339617,VALID,20.0418,VALID,7,VALID,0.893787,
2003-10-23, 02:37:00,VALID,919.91,VALID,0,VALID,100,VALID,-0.0169808,VALID,20.0194,VALID,8,VALID,0.865589,
2003-10-23, 02:38:00,VALID,919.918,VALID,0,VALID,100,VALID,0,VALID,19.9804,VALID,4,VALID,0.973474,
2003-10-23, 02:39:00,VALID,919.915,VALID,0,VALID,100,VALID,0,VALID,19.9479,VALID,4,VALID,1.0685,
2003-10-23, 02:40:00,VALID,919.919,VALID,0,VALID,100,VALID,0,VALID,19.9325,VALID,14,VALID,0.734885,
2003-10-23, 02:41:00,VALID,919.924,VALID,0,VALID,100,VALID,0.0169808,VALID,19.9546,VALID,28,VALID,0.867188,
2003-10-23, 02:42:00,VALID,919.923,VALID,0,VALID,100,VALID,0.0169808,VALID,19.9489,VALID,11,VALID,0.987393,
2003-10-23, 02:43:00,VALID,919.929,VALID,0,VALID,100,VALID,0,VALID,19.9419,VALID,8,VALID,0.912972,
2003-10-23, 02:44:00,VALID,919.938,VALID,0,VALID,100,VALID,0,VALID,19.9293,VALID,28,VALID,1,
2003-10-23, 02:45:00,VALID,919.917,VALID,0,VALID,100,VALID,0,VALID,19.9096,VALID,32,VALID,1.2168,
2003-10-23, 02:46:00,VALID,919.909,VALID,0,VALID,100,VALID,-0.0169808,VALID,19.8677,VALID,25,VALID,1.28296,
2003-10-23, 02:47:00,VALID,919.906,VALID,0,VALID,100,VALID,0,VALID,19.8155,VALID,25,VALID,1.04669,
2003-10-23, 02:48:00,VALID,919.899,VALID,0,VALID,100,VALID,0,VALID,19.7964,VALID,41,VALID,0.692969,
2003-10-23, 02:49:00,VALID,919.904,VALID,0,VALID,100,VALID,-0.0169808,VALID,19.7872,VALID,13,VALID,0.543146,
2003-10-23, 02:50:00,VALID,919.906,VALID,0,VALID,100,VALID,0,VALID,19.7802,VALID,17,VALID,0.440589,
2003-10-23, 02:51:00,VALID,919.897,VALID,0,VALID,100,VALID,0.0169808,VALID,19.7837,VALID,16,VALID,0.596413,
2003-10-23, 02:52:00,VALID,919.907,VALID,0,VALID,100,VALID,0,VALID,19.7805,VALID,27,VALID,0.668786,
2003-10-23, 02:53:00,VALID,919.893,VALID,0,VALID,100,VALID,0,VALID,19.7676,VALID,49,VALID,0.619673,
2003-10-23, 02:54:00,VALID,919.899,VALID,0,VALID,100,VALID,0,VALID,19.7581,VALID,24,VALID,0.670058,
2003-10-23, 02:55:00,VALID,919.894,VALID,0,VALID,100,VALID,0.0339617,VALID,19.7248,VALID,28,VALID,0.493207,
2003-10-23, 02:56:00,VALID,919.893,VALID,0,VALID,100,VALID,0.0169808,VALID,19.6995,VALID,40,VALID,0.567522,
2003-10-23, 02:57:00,VALID,919.887,VALID,0,VALID,100,VALID,0.0169808,VALID,19.69,VALID,23,VALID,0.453125,
2003-10-23, 02:58:00,VALID,919.876,VALID,0,VALID,100,VALID,0.0169808,VALID,19.7035,VALID,20,VALID,0.307813,
2003-10-23, 02:59:00,VALID,919.869,VALID,0,VALID,100,VALID,0.0339617,VALID,19.6739,VALID,20,VALID,0.295312,
2003-10-23, 03:00:00,VALID,919.847,VALID,0,VALID,100,VALID,0.0339617,VALID,19.6739,VALID,20,VALID,0.447731,
2003-10-23, 03:01:00,VALID,919.832,VALID,0,VALID,100,VALID,0.0169808,VALID,19.6742,VALID,20,VALID,0.545177,
2003-10-23, 03:02:00,VALID,919.818,VALID,0,VALID,100,VALID,0.0169808,VALID,19.6774,VALID,17,VALID,0.663715,
2003-10-23, 03:03:00,VALID,919.809,VALID,0,VALID,100,VALID,0.0169808,VALID,19.6448,VALID,10,VALID,0.67351,
2003-10-23, 03:04:00,VALID,919.803,VALID,0,VALID,100,VALID,0,VALID,19.6158,VALID,10,VALID,0.465104,
2003-10-23, 03:05:00,VALID,919.806,VALID,0,VALID,100,VALID,0,VALID,19.6056,VALID,10,VALID,0.425426,
2003-10-23, 03:06:00,VALID,919.818,VALID,0,VALID,100,VALID,0.0169808,VALID,19.6352,VALID,10,VALID,0.450462,
2003-10-23, 03:07:00,VALID,919.813,VALID,0,VALID,100,VALID,0.0339617,VALID,19.6637,VALID,10,VALID,0.27326,
2003-10-23, 03:08:00,VALID,919.825,VALID,0,VALID,100,VALID,0,VALID,19.694,VALID,10,VALID,0.241992,
2003-10-23, 03:09:00,VALID,919.824,VALID,0,VALID,100,VALID,0.0169808,VALID,19.693,VALID,10,VALID,0.119093,
2003-10-23, 03:10:00,VALID,919.84,VALID,0,VALID,100,VALID,0,VALID,19.7159,VALID,10,VALID,0.066988,
2003-10-23, 03:11:00,VALID,919.849,VALID,0,VALID,100,VALID,0,VALID,19.7132,VALID,10,VALID,0.088199,
2003-10-23, 03:12:00,VALID,919.849,VALID,0,VALID,100,VALID,0.0339617,VALID,19.7062,VALID,10,VALID,0.305432,
2003-10-23, 03:13:00,VALID,919.854,VALID,0,VALID,100,VALID,0,VALID,19.7325,VALID,13,VALID,0.615885,
2003-10-23, 03:14:00,VALID,919.859,VALID,0,VALID,100,VALID,0.0169808,VALID,19.7333,VALID,16,VALID,0.484375,
2003-10-23, 03:15:00,VALID,919.856,VALID,0,VALID,100,VALID,0,VALID,19.7256,VALID,16,VALID,0.5,
2003-10-23, 03:16:00,VALID,919.866,VALID,0,VALID,100,VALID,0,VALID,19.732,VALID,16,VALID,0.351199,
2003-10-23, 03:17:00,VALID,919.878,VALID,0,VALID,100,VALID,0,VALID,19.7484,VALID,16,VALID,0.0751065,
2003-10-23, 03:18:00,VALID,919.876,VALID,0,VALID,100,VALID,0.0339617,VALID,19.7482,VALID,16,VALID,0.181212,
2003-10-23, 03:19:00,VALID,919.888,VALID,0,VALID,100,VALID,0,VALID,19.7517,VALID,16,VALID,0.183866,
2003-10-23, 03:20:00,VALID,919.882,VALID,0,VALID,100,VALID,-0.0679233,VALID,19.7531,VALID,16,VALID,0.0691964,
2003-10-23, 03:21:00,VALID,919.9,VALID,0,VALID,100,VALID,-0.101885,VALID,19.73,VALID,16,VALID,0.193452,
2003-10-23, 03:22:00,VALID,919.89,VALID,0,VALID,100,VALID,-0.101885,VALID,19.734,VALID,16,VALID,0.12593,
2003-10-23, 03:23:00,VALID,919.889,VALID,0,VALID,100,VALID,-0.0849042,VALID,19.7079,VALID,16,VALID,0.194196,
2003-10-23, 03:24:00,VALID,919.883,VALID,0,VALID,100,VALID,-0.101885,VALID,19.6659,VALID,16,VALID,0.0641741,
2003-10-23, 03:25:00,VALID,919.884,VALID,0,VALID,100,VALID,-0.0849042,VALID,19.6431,VALID,16,VALID,0.226953,
2003-10-23, 03:26:00,VALID,919.863,VALID,0,VALID,100,VALID,-0.0679233,VALID,19.6404,VALID,16,VALID,0.165128,
2003-10-23, 03:27:00,VALID,919.877,VALID,0,VALID,100,VALID,-0.101885,VALID,19.6344,VALID,16,VALID,0.0399926,
2003-10-23, 03:28:00,VALID,919.871,VALID,0,VALID,100,VALID,-0.101885,VALID,19.6046,VALID,16,VALID,0.0397727,
2003-10-23, 03:29:00,VALID,919.87,VALID,0,VALID,100,VALID,-0.101885,VALID,19.5887,VALID,16,VALID,0,
2003-10-23, 03:30:00,VALID,919.874,VALID,0,VALID,100,VALID,-0.101885,VALID,19.5631,VALID,16,VALID,0,
2003-10-23, 03:31:00,VALID,919.876,VALID,0,VALID,100,VALID,-0.0849042,VALID,19.5472,VALID,16,VALID,0,
2003-10-23, 03:32:00,VALID,919.878,VALID,0,VALID,100,VALID,-0.101885,VALID,19.5114,VALID,17,VALID,0,
2003-10-23, 03:33:00,VALID,919.884,VALID,0,VALID,100,VALID,-0.101885,VALID,19.4888,VALID,17,VALID,0,
2003-10-23, 03:34:00,VALID,919.888,VALID,0,VALID,100,VALID,-0.101885,VALID,19.4563,VALID,16,VALID,0,
2003-10-23, 03:35:00,VALID,919.884,VALID,0,VALID,100,VALID,-0.0679233,VALID,19.427,VALID,16,VALID,0,
2003-10-23, 03:36:00,VALID,919.893,VALID,0,VALID,100,VALID,-0.118866,VALID,19.4016,VALID,17,VALID,0,
2003-10-23, 03:37:00,VALID,919.89,VALID,0,VALID,100,VALID,-0.101885,VALID,19.3659,VALID,17,VALID,0,
2003-10-23, 03:38:00,VALID,919.888,VALID,0,VALID,100,VALID,-0.0849042,VALID,19.3341,VALID,17,VALID,0,
2003-10-23, 03:39:00,VALID,919.871,VALID,0,VALID,100,VALID,-0.101885,VALID,19.3015,VALID,17,VALID,0,
2003-10-23, 03:40:00,VALID,919.861,VALID,0,VALID,100,VALID,-0.101885,VALID,19.2851,VALID,17,VALID,0,
2003-10-23, 03:41:00,VALID,919.845,VALID,0,VALID,100,VALID,-0.101885,VALID,19.2792,VALID,17,VALID,0.0330256,
2003-10-23, 03:42:00,VALID,919.835,VALID,0,VALID,100,VALID,-0.101885,VALID,19.2434,VALID,17,VALID,0.0834604,
2003-10-23, 03:43:00,VALID,919.82,VALID,0,VALID,100,VALID,-0.0849042,VALID,19.2079,VALID,17,VALID,0.204545,
2003-10-23, 03:44:00,VALID,919.803,VALID,0,VALID,100,VALID,-0.0849042,VALID,19.1855,VALID,82,VALID,0.422637,